EW3259 Weather Reports


time (UTC)temp
C
wind
direction
speed
KPH
gust
KPH
rain 1hr
cm
rain 24hr
cm
rain mn
cm
humidity
%
barometer
mb
20260906052435 23 45 1.6 3.2 0.00 0.00 0.00 92 978.9
20260906050635 24 0 0.0 0.0 0.00 0.00 0.00 92 978.9
20260906045735 24 0 0.0 0.0 0.00 0.00 0.00 92 979.0
20260906044835 24 45 0.0 1.6 0.00 0.00 0.00 91 979.0
20260906043935 24 0 0.0 0.0 0.00 0.00 0.00 91 979.2
20260906043036 24 0 0.0 0.0 0.00 0.00 0.00 91 979.4
20260906042135 24 0 0.0 0.0 0.00 0.00 0.00 91 979.3
20260906041235 25 0 0.0 0.0 0.00 0.00 0.00 90 979.5
20260906040335 25 0 0.0 0.0 0.00 0.00 0.00 90 979.4
20260906035435 25 0 0.0 0.0 0.00 0.00 0.00 89 979.3
20260906034536 25 0 0.0 0.0 0.00 0.00 0.00 89 979.3
20260906033635 25 1 0.0 3.2 0.00 0.00 0.00 89 979.4
20260906032735 25 1 1.6 3.2 0.00 0.00 0.00 88 979.4
20260906031835 25 1 0.0 1.6 0.00 0.00 0.00 88 979.4
20260906030935 25 1 0.0 3.2 0.00 0.00 0.00 88 979.2
20260906030035 25 344 0.0 6.4 0.00 0.00 0.00 88 979.3
20260906025135 25 135 0.0 1.6 0.00 0.00 0.00 87 978.8
20260906024235 25 135 0.0 1.6 0.00 0.00 0.00 86 978.7
20260906023335 25 0 0.0 0.0 0.00 0.00 0.00 85 978.6
20260906022435 25 0 0.0 0.0 0.00 0.00 0.00 84 978.6
20260906021535 26 0 0.0 0.0 0.00 0.00 0.00 82 978.5
20260906020634 26 0 0.0 0.0 0.00 0.00 0.00 82 978.4
20260906015736 27 135 0.0 3.2 0.00 0.00 0.00 81 978.2
20260906014834 27 135 0.0 1.6 0.00 0.00 0.00 81 978.3
20260906013935 27 135 0.0 1.6 0.00 0.00 0.00 80 978.2
20260906013035 27 135 0.0 3.2 0.00 0.00 0.00 80 978.1
20260906012135 27 128 1.6 3.2 0.00 0.00 0.00 78 978.1
20260906011235 28 11 1.6 3.2 0.00 0.00 0.00 76 978.2
20260906010334 28 1 1.6 1.6 0.00 0.00 0.00 75 978.0
20260906005435 28 1 0.0 1.6 0.00 0.00 0.00 74 978.0
20260906004535 28 1 0.0 1.6 0.00 0.00 0.00 71 977.9
20260906003635 29 1 0.0 1.6 0.00 0.00 0.00 70 977.8
20260906002735 30 23 0.0 3.2 0.00 0.00 0.00 66 977.9
20260906001835 30 45 0.0 1.6 0.00 0.00 0.00 63 977.8
20260906000935 31 45 0.0 1.6 0.00 0.00 0.00 62 977.9
20260906000036 32 0 0.0 0.0 0.00 0.00 0.00 58 977.8
20260905232436 34 37 0.0 3.2 0.00 0.00 0.00 51 978.2
20260905230635 35 131 1.6 4.8 0.00 0.00 0.00 47 977.9
20260905224834 35 146 1.6 6.4 0.00 0.00 0.00 45 978.0
20260905223935 35 136 4.8 6.4 0.00 0.00 0.00 47 977.8
20260905223034 35 140 3.2 6.4 0.00 0.00 0.00 46 978.0
20260905222135 36 116 1.6 4.8 0.00 0.00 0.00 44 978.0
20260905221234 36 124 3.2 4.8 0.00 0.00 0.00 43 978.0
20260905220335 36 150 3.2 6.4 0.00 0.00 0.00 40 978.0
20260905215434 36 121 0.0 9.7 0.00 0.00 0.00 43 978.2
20260905213634 36 132 3.2 6.4 0.00 0.00 0.00 44 978.1
20260905212734 36 108 4.8 6.4 0.00 0.00 0.00 43 978.2
20260905211834 36 142 1.6 9.7 0.00 0.00 0.00 45 978.2
20260905210934 36 152 6.4 9.7 0.00 0.00 0.00 48 978.4
20260905210036 36 277 6.4 9.7 0.00 0.00 0.00 47 978.3
20260905204234 35 142 1.6 6.4 0.00 0.00 0.00 46 978.4
20260905203334 36 152 3.2 6.4 0.00 0.00 0.00 42 978.6
20260905202434 36 356 3.2 11.3 0.00 0.00 0.00 43 978.5
20260905201536 36 358 3.2 6.4 0.00 0.00 0.00 43 978.7
20260905200634 36 272 1.6 8.0 0.00 0.00 0.00 42 979.0
20260905195735 35 22 4.8 6.4 0.00 0.00 0.00 50 979.1
20260905194834 35 355 3.2 12.9 0.00 0.00 0.00 49 979.1
20260905193934 36 356 12.9 12.9 0.00 0.00 0.00 41 979.2
20260905193035 36 86 3.2 8.0 0.00 0.00 0.00 41 979.3
20260905192134 36 136 3.2 8.0 0.00 0.00 0.00 42 979.7
20260905191234 36 304 4.8 8.0 0.00 0.00 0.00 42 979.7
20260905190334 36 151 3.2 12.9 0.00 0.00 0.00 43 979.8
20260905185434 35 77 3.2 8.0 0.00 0.00 0.00 50 979.9
20260905184534 35 127 0.0 6.4 0.00 0.00 0.00 47 979.9
20260905183634 36 291 4.8 8.0 0.00 0.00 0.00 43 979.9
20260905181834 36 60 3.2 6.4 0.00 0.00 0.00 43 980.2
20260905180035 35 336 1.6 8.0 0.00 0.00 0.00 45 980.3
20260905175134 36 27 3.2 8.0 0.00 0.00 0.00 47 980.4
20260905174234 35 87 3.2 6.4 0.00 0.00 0.00 50 980.3
20260905173334 35 73 4.8 6.4 0.00 0.00 0.00 50 980.4
20260905172434 35 342 3.2 6.4 0.00 0.00 0.00 50 980.4
20260905171534 35 356 4.8 6.4 0.00 0.00 0.00 50 980.5
20260905165734 35 54 6.4 8.0 0.00 0.00 0.00 52 980.6
20260905164834 35 100 4.8 6.4 0.00 0.00 0.00 52 981.0
20260905163934 34 341 3.2 8.0 0.00 0.00 0.00 52 981.0
20260905162134 34 345 4.8 6.4 0.00 0.00 0.00 51 981.1
20260905160335 34 36 1.6 4.8 0.00 0.00 0.00 51 981.4
20260905155435 34 36 1.6 4.8 0.00 0.00 0.00 51 981.4
20260905154534 33 317 0.0 6.4 0.00 0.00 0.00 52 981.4
20260905153634 33 72 3.2 6.4 0.00 0.00 0.00 53 981.5
20260905152734 33 76 1.6 4.8 0.00 0.00 0.00 55 981.3
20260905151834 33 16 1.6 4.8 0.00 0.00 0.00 57 981.4
20260905150934 32 69 1.6 4.8 0.00 0.00 0.00 57 981.6
20260905150035 32 80 1.6 4.8 0.00 0.00 0.00 59 981.5
20260905145134 32 90 1.6 3.2 0.00 0.00 0.00 58 981.7
20260905144234 31 8 0.0 6.4 0.00 0.00 0.00 58 981.4
20260905143335 32 53 1.6 4.8 0.00 0.00 0.00 59 981.7
20260905142434 31 76 0.0 3.2 0.00 0.00 0.00 61 981.5
20260905141534 31 124 3.2 4.8 0.00 0.00 0.00 64 981.5
20260905135734 30 38 0.0 3.2 0.00 0.00 0.00 73 981.6
20260905134834 29 4 0.0 3.2 0.00 0.00 0.00 79 981.5
20260905133934 28 45 0.0 1.6 0.00 0.00 0.00 91 981.6
20260905133034 26 45 1.6 3.2 0.00 0.00 0.00 91 981.6
20260905132134 26 41 0.0 3.2 0.00 0.00 0.00 93 981.5
20260905131235 25 23 0.0 3.2 0.00 0.00 0.00 95 981.7
20260905130334 24 23 1.6 3.2 0.00 0.00 0.00 96 981.4
20260905125434 23 14 1.6 3.2 0.00 0.00 0.00 97 981.4
20260905124535 23 1 0.0 1.6 0.00 0.00 0.00 97 981.5
20260905123635 23 1 0.0 3.2 0.00 0.00 0.00 97 981.4
20260905122734 23 1 0.0 1.6 0.00 0.00 0.00 97 981.4
20260905121835 22 0 0.0 0.0 0.00 0.00 0.00 95 981.3
20260905120934 22 0 0.0 0.0 0.00 0.00 0.00 95 981.3
20260905120034 22 0 0.0 0.0 0.00 0.00 0.00 94 981.5
20260905115134 22 0 0.0 0.0 0.00 0.00 0.00 94 981.3
20260905114234 22 0 0.0 0.0 0.00 0.00 0.00 94 981.1
20260905113335 22 0 0.0 0.0 0.00 0.00 0.00 94 981.1
20260905112434 22 0 0.0 0.0 0.00 0.00 0.00 94 980.9
20260905111534 22 45 0.0 1.6 0.00 0.00 0.00 94 980.6
20260905110635 22 0 0.0 0.0 0.00 0.00 0.00 94 980.5
20260905105734 22 0 0.0 0.0 0.00 0.00 0.00 94 980.6
20260905104834 22 0 0.0 0.0 0.00 0.00 0.00 94 980.5
20260905103934 22 0 0.0 0.0 0.00 0.00 0.00 94 980.4
20260905103034 22 1 0.0 1.6 0.00 0.00 0.00 94 980.4
20260905102134 22 1 0.0 1.6 0.00 0.00 0.00 94 980.5
20260905100335 22 0 0.0 0.0 0.00 0.00 0.00 94 980.3
20260905095434 22 0 0.0 0.0 0.00 0.00 0.00 94 980.3
20260905094534 22 0 0.0 0.0 0.00 0.00 0.00 94 980.4
20260905093634 22 0 0.0 0.0 0.00 0.00 0.00 94 980.3
20260905092734 22 1 0.0 1.6 0.00 0.00 0.00 94 980.2
20260905091834 22 0 0.0 0.0 0.00 0.00 0.00 94 980.1
20260905090935 22 0 0.0 0.0 0.00 0.00 0.00 93 980.0
20260905090035 22 1 0.0 1.6 0.00 0.00 0.00 94 980.0
20260905084235 22 1 0.0 1.6 0.00 0.00 0.00 93 979.9
20260905083334 22 0 0.0 0.0 0.00 0.00 0.00 93 980.0
20260905081534 22 0 0.0 0.0 0.00 0.00 0.00 93 979.7
20260905075734 22 0 0.0 0.0 0.00 0.00 0.00 93 979.8
20260905074836 22 90 0.0 3.2 0.00 0.00 0.00 93 979.9
20260905073934 22 90 0.0 1.6 0.00 0.00 0.00 93 980.0
20260905073034 22 0 0.0 0.0 0.00 0.00 0.00 93 980.0
20260905072134 22 0 0.0 0.0 0.00 0.00 0.00 93 980.2
20260905071234 22 0 0.0 0.0 0.00 0.00 0.00 93 980.1
20260905070334 22 0 0.0 0.0 0.00 0.00 0.00 93 980.2
20260905065434 22 0 0.0 0.0 0.00 0.00 0.00 93 980.0
20260905064534 22 90 0.0 1.6 0.00 0.00 0.00 92 980.3
20260905063634 22 0 0.0 0.0 0.00 0.00 0.00 92 980.4
20260905062734 22 86 0.0 3.2 0.00 0.00 0.00 92 980.3
20260905061834 22 45 0.0 1.6 0.00 0.00 0.00 92 980.4
20260905060934 22 45 0.0 1.6 0.00 0.00 0.00 92 980.7
20260905060034 22 45 0.0 3.2 0.00 0.00 0.00 94 980.5
20260905055135 23 28 0.0 1.6 0.00 0.00 0.00 94 980.8